Weather Roundup
Issued by NWS Chicago, IL

Home | Current Version | Previous Version | Text Only | Print | Product List | Glossary On
Versions: 1 2 3 4 5 6 7 8 9 10 11 12 13 14 15 16 17 18 19 20 21 22 23 24 25 26 27 28 29 30 31 32 33 34 35 36 37 38 39 40 41 42 43 44 45 46 47 48 49 50
000
NZUS59 KLOT 202008
HRRLOT

CHICAGO AREA WEATHER ROUNDUP
NATIONAL WEATHER SERVICE CHICAGO/ROMEOVILLE IL
300 PM CDT SUN AUG 20 2017

NOTE: "FAIR" INDICATES FEW OR NO CLOUDS BELOW 12,000 FEET WITH NO
SIGNIFICANT WEATHER AND/OR OBSTRUCTIONS TO VISIBILITY.

* THESE STATIONS ARE NOT UNDER NWS QUALITY CONTROL. THEY ALSO MAY NOT
  REPORT WEATHER SUCH AS PRECIPITATION OR FOG.

ILZ005-006-012>014-019>023-202100-
NORTHEAST ILLINOIS

CITY           SKY/WX    TMP DP  RH WIND       PRES   REMARKS
OHARE          CLOUDY    88  62  41 W8        30.00S HX  88
MIDWAY         PTSUNNY   88  66  48 W8        30.01S HX  90
AURORA         CLOUDY    82  71  69 SW6       30.03S HX  86
LANSING*       MOSUNNY   84  65  53 S8        30.03S HX  85
JOLIET*        CLOUDY    83  73  70 SW6       30.02F HX  89
WAUKEGAN       CLOUDY    79  68  69 SE8       30.01S HX  81
DUPAGE AIRPORT MOSUNNY   83  69  62 SW12      30.01S HX  86
WHEELING       MOSUNNY   87  67  51 W8        30.02S HX  90
MORRIS*        CLOUDY    82  72  72 S5        30.02S HX  86
LEWIS AIRPORT* CLOUDY    82  69  65 SW8       30.03S HX  85
NORTHERLY ISL    N/A     78  68  71 E10         N/A  HX  80
$$

WIZ051-052-058>065-066-070>072-202100-
SOUTHEAST WISCONSIN

CITY           SKY/WX    TMP DP  RH WIND       PRES   REMARKS
MILWAUKEE      CLOUDY    84  66  54 W7        30.00F HX  86
KENOSHA*       PTSUNNY   83  67  58 SW8       30.02S HX  85
RACINE*        PTSUNNY   78  66  66 SE9       30.03S HX  80
WAUKESHA       MOSUNNY   79  64  61 SW6       30.02F HX  81
WEST BEND      CLOUDY    79  66  65 SW8       30.01S HX  81
$$

INZ001>003-010>013-019-020-202100-
NORTHWEST INDIANA

CITY           SKY/WX    TMP DP  RH WIND       PRES   REMARKS
GARY*          PTSUNNY   88  61  40 S6        30.03S HX  88
MICHIGAN CITY* NOT AVBL
RENSSELAER*    NOT AVBL
VALPARAISO     MOSUNNY   87  67  51 S10       30.04F HX  90
$$

LMZ740>746-202100-
SOUTHERN LAKE MICHIGAN

STATION/POSITION TIME  SKY/WX   TEMP WIND        PRES    VSBY
                                AIR  DIR/SP/G
                 (UTC)          (F)  (DEG/KT/KT) (MB)    (MI)
HARRISON CRIB    1940            79  120/ 13/ 14   N/A
BURNHAM HARBOR   NOT AVBL
CALUMET HARBOR   1948            83  110/  3/ 11 1015.7F
BURNS HARBOR     1940            79   10/  5/  9 1016.9F
MICHIGAN CITY    1940            78   10/  7/  7   N/A
$$

ABBREVIATIONS USED IN REMARKS
   TC - TEMPERATURE IN CELSIUS
  WCI - WIND CHILL INDEX
   HX - HEAT INDEX
  VSB - VISIBILITY
$$




USA.gov is the U.S. government's official web portal to all federal, state and local government web resources and services.